[[{"header":{"parameterUnit":"m.s-1","parameterCategory":1,"la1":30.2991,"la2":30.254,"lo1":-89.0895,"lo2":-89.0444,"dy":0.0017,"dx":0.0017,"nx":28,"ny":28,"refTime":"2025-05-20T21:00:00:Z","depth":0,"parameterNumber":2,"parameterNumberName":"U-component_of_WINDS"},"data":[0,0,0,0,0,0,0,0,0,0,0,0,0,0,0,0,0,0,0,0,0,0,0,0,0,0,0,0,0,0,0,0,0,0,0,0,0,0,0,0,0,0,0,0,0,0,0,0,0,0,0,0,0,0,0,0,0,0,1.2705,1.2707,0,1.2874,1.2876,1.2878,1.2958,1.2957,1.2957,1.2957,1.3135,1.3139,1.3144,0,0,0,0,0,0,0,0,0,0,0,0,0,1.2454,1.2459,1.2705,1.2707,1.2709,1.2874,1.2876,1.2879,1.2958,1.2957,1.2957,1.2957,1.3133,1.3139,1.3145,0,0,0,0,0,0,0,0,0,0,0,0,0,1.2588,1.246,1.2704,1.2768,1.2775,1.2874,1.2877,1.2879,1.2958,1.2957,1.2957,1.2957,1.3131,1.3138,1.3146,1.3194,0,0,1.3168,1.3171,0,0,0,0,0,0,0,0,1.258,1.2597,1.2757,1.2764,1.2772,1.2895,1.2853,1.2985,1.2958,1.2889,1.2957,1.2957,1.3055,1.3069,1.3101,1.3203,1.321,1.3168,1.3173,1.3176,1.3178,0,0,0,0,0,0,0,1.2571,1.259,1.2772,1.2759,1.2768,1.279,1.2809,1.2879,1.2971,1.2895,1.2901,1.292,1.306,1.3094,1.3106,1.3213,1.3168,1.3175,1.3179,1.3182,1.3366,1.3367,0,0,0,0,0,0,1.255,1.2582,1.2767,1.2777,1.2674,1.2795,1.2816,1.2856,1.297,1.2988,1.292,1.2923,1.3082,1.3097,1.3112,1.3179,1.3176,1.3183,1.3187,1.3366,1.3366,1.3367,0,0,0,0,0,0,1.2545,1.2566,1.276,1.2681,1.2707,1.2799,1.2843,1.2859,1.2893,1.2989,1.3007,1.2937,1.3082,1.3102,1.3174,1.3186,1.3186,1.3193,1.3365,1.3366,1.3367,1.3311,0,0,0,0,0,0,1.2537,1.2563,1.2581,1.2681,1.2711,1.2816,1.2844,1.2862,1.2905,1.2911,1.3011,1.3027,1.3083,1.3163,1.3181,1.3196,1.3198,1.3365,1.3366,1.3367,1.3312,1.3309,1.3307,0,0,0,0,0,1.2528,1.2559,1.2582,1.2604,1.2735,1.2817,1.2834,1.2897,1.2906,1.2926,1.2988,1.3024,1.3182,1.3169,1.3191,1.3208,1.3364,1.3365,1.3366,1.3313,1.331,1.3307,0,0,0,0,0,0,1.2459,1.2573,1.26,1.2663,1.273,1.283,1.2856,1.2892,1.2958,1.2961,1.3038,1.306,1.3125,1.3174,1.3158,1.3263,1.3277,1.3282,1.3228,1.3226,1.3224,1.3211,1.3204,0,0,0,0,0,1.2451,1.2506,1.2603,1.265,1.2682,1.2763,1.2801,1.2845,1.2917,1.2946,1.3013,1.3083,1.3149,1.319,1.3256,1.332,1.3344,1.3343,1.334,1.3338,1.3342,1.3382,1.3383,1.3371,1.3371,1.3371,0,0,1.2435,1.2505,1.2535,1.2638,1.2695,1.2752,1.2786,1.2845,1.2889,1.2955,1.3026,1.3079,1.3162,1.323,1.3264,1.3273,1.3351,1.334,1.3337,1.3342,1.3383,1.3384,1.3385,1.3372,1.3372,1.3372,0,0,1.2436,1.2493,1.254,1.2596,1.2681,1.2735,1.2746,1.2842,1.2879,1.2952,1.3003,1.3058,1.3169,1.3227,1.3271,1.3297,1.3333,1.3317,1.3305,1.3343,1.3344,1.3345,1.3356,1.3359,1.332,1.332,1.332,0,1.2406,1.2493,1.2559,1.2615,1.2661,1.2723,1.2772,1.2824,1.2926,1.2957,1.2966,1.3108,1.3169,1.3253,1.3259,1.3292,1.331,1.3305,1.3338,1.334,1.3342,1.3354,1.3357,1.3318,1.3318,1.3318,1.3318,0,1.2453,1.2512,1.254,1.2637,1.2685,1.2737,1.2814,1.2856,1.2896,1.295,1.3025,1.31,1.3183,1.3207,1.3246,1.3297,1.3301,1.3323,1.3338,1.334,1.3352,1.3356,1.3314,1.3315,1.3316,1.3316,0,0,1.2413,1.2547,1.2556,1.2602,1.2702,1.275,1.2807,1.2887,1.2922,1.2992,1.3043,1.3137,1.3159,1.3209,1.3256,1.3289,1.3307,1.3308,1.3311,1.3306,1.3371,1.3353,1.3357,1.3332,1.3333,1.3334,1.3364,0,1.2428,1.253,1.2593,1.267,1.2728,1.2789,1.2839,1.2907,1.296,1.3018,1.3078,1.3143,1.3166,1.3197,1.3233,1.3297,1.3321,1.3296,1.3382,1.3384,1.3359,1.3363,1.3345,1.3369,1.3369,1.337,1.337,0,1.2458,1.2526,1.2609,1.2705,1.2731,1.2774,1.2855,1.2909,1.2988,1.3025,1.3082,1.313,1.3195,1.3205,1.3297,1.3278,1.3318,1.3355,1.3358,1.3368,1.3377,1.3374,1.3378,1.3382,1.3378,1.3378,1.3377,0,1.2422,1.2534,1.2599,1.2636,1.2749,1.2778,1.2827,1.2906,1.2952,1.3023,1.3054,1.3131,1.3174,1.3235,1.3304,1.3304,1.339,1.3405,1.3423,1.3422,1.3438,1.3436,1.3448,1.3463,1.3463,1.3462,1.3462,0,1.2432,1.2481,1.2584,1.2624,1.2681,1.2755,1.281,1.2865,1.2935,1.2988,1.3047,1.3096,1.3184,1.3245,1.33,1.3369,1.3388,1.3421,1.3435,1.3415,1.3411,1.3442,1.3442,1.3464,1.3463,1.3463,1.3463,0,1.2401,1.2472,1.2547,1.2648,1.2675,1.2713,1.2801,1.2843,1.29,1.2967,1.2987,1.3077,1.3152,1.3227,1.3328,1.3365,1.3433,1.3452,1.3405,1.3413,1.3428,1.3426,1.3461,1.347,1.3477,1.3476,1.3476,0,1.2402,1.2441,1.2547,1.2586,1.2634,1.2696,1.2743,1.2818,1.2865,1.296,1.2991,1.3071,1.3138,1.3255,1.3331,1.3409,1.3431,1.3438,1.3443,1.3423,1.3432,1.3429,1.3434,1.3435,1.3435,1.3434,1.3434,0,1.2398,1.2432,1.2496,1.2574,1.2628,1.2692,1.276,1.2789,1.2878,1.2928,1.3005,1.3057,1.3161,1.3239,1.3327,1.338,1.3423,1.3432,1.3441,1.3421,1.3393,1.341,1.3399,1.3431,1.3431,1.3431,1.3431,1.3432,1.2384,1.2423,1.2503,1.2574,1.2632,1.2694,1.274,1.2803,1.2868,1.2957,1.2998,1.3076,1.3159,1.3281,1.3333,1.3397,1.3408,1.342,1.3423,1.3425,1.3421,1.3383,1.3413,1.3413,1.3414,1.3414,1.3414,0,1.2384,1.2439,1.2504,1.2596,1.2652,1.2686,1.2763,1.2809,1.2876,1.2948,1.3013,1.3103,1.3181,1.3263,1.3346,1.3382,1.3404,1.3401,1.3399,1.3411,1.3406,1.3391,1.3382,1.3382,1.3382,1.3382,1.3382,1.3382,1.239,1.2457,1.2501,1.2599,1.2656,1.2731,1.2772,1.2831,1.2889,1.2986,1.3051,1.3104,1.3182,1.3271,1.3345,1.3368,1.3396,1.3388,1.3416,1.3409,1.3411,1.3413,1.3399,1.3393,1.3393,1.3416,1.3417,1.3417]},{"header":{"parameterUnit":"m.s-1","parameterCategory":1,"la1":30.2991,"la2":30.254,"lo1":-89.0895,"lo2":-89.0444,"dy":0.0017,"dx":0.0017,"nx":28,"ny":28,"refTime":"2025-05-20T21:00:00:Z","depth":0,"parameterNumber":3,"parameterNumberName":"V-component_of_WINDS"},"data":[0,0,0,0,0,0,0,0,0,0,0,0,0,0,0,0,0,0,0,0,0,0,0,0,0,0,0,0,0,0,0,0,0,0,0,0,0,0,0,0,0,0,0,0,0,0,0,0,0,0,0,0,0,0,0,0,0,0,-2.6392,-2.6392,0,-2.6414,-2.6414,-2.6414,-2.6436,-2.6436,-2.6436,-2.6437,-2.6454,-2.6454,-2.6454,0,0,0,0,0,0,0,0,0,0,0,0,0,-2.6366,-2.6366,-2.6392,-2.6392,-2.6392,-2.6414,-2.6414,-2.6414,-2.6436,-2.6436,-2.6436,-2.6437,-2.6454,-2.6454,-2.6454,0,0,0,0,0,0,0,0,0,0,0,0,0,-2.6381,-2.6366,-2.6392,-2.6406,-2.6407,-2.6414,-2.6414,-2.6414,-2.6436,-2.6436,-2.6437,-2.6437,-2.6454,-2.6454,-2.6454,-2.6447,0,0,-2.6455,-2.6455,0,0,0,0,0,0,0,0,-2.638,-2.6382,-2.6404,-2.6405,-2.6407,-2.6423,-2.6411,-2.6425,-2.6436,-2.6425,-2.6437,-2.6437,-2.6443,-2.6444,-2.6447,-2.6448,-2.6448,-2.6455,-2.6455,-2.6455,-2.6455,0,0,0,0,0,0,0,-2.6379,-2.6381,-2.64,-2.6404,-2.6406,-2.641,-2.6413,-2.6414,-2.6431,-2.6426,-2.6427,-2.643,-2.6444,-2.6447,-2.6447,-2.6449,-2.6455,-2.6455,-2.6455,-2.6456,-2.6446,-2.6446,0,0,0,0,0,0,-2.6377,-2.638,-2.64,-2.6401,-2.6394,-2.641,-2.6413,-2.6417,-2.6431,-2.6434,-2.643,-2.6431,-2.6446,-2.6447,-2.6448,-2.6441,-2.6455,-2.6456,-2.6456,-2.6447,-2.6446,-2.6446,0,0,0,0,0,0,-2.6376,-2.6378,-2.6399,-2.6391,-2.6394,-2.641,-2.6414,-2.6417,-2.642,-2.6434,-2.6437,-2.643,-2.6446,-2.6448,-2.6448,-2.6442,-2.6456,-2.6456,-2.6447,-2.6447,-2.6446,-2.6427,0,0,0,0,0,0,-2.6375,-2.6378,-2.6376,-2.6391,-2.6395,-2.6399,-2.6414,-2.6417,-2.6421,-2.6423,-2.6435,-2.6437,-2.6447,-2.6447,-2.6448,-2.6443,-2.6456,-2.6448,-2.6447,-2.6446,-2.6428,-2.6426,-2.6424,0,0,0,0,0,-2.6374,-2.6368,-2.6375,-2.6378,-2.6392,-2.6399,-2.64,-2.6413,-2.6421,-2.6418,-2.6428,-2.6436,-2.6443,-2.6447,-2.6448,-2.6443,-2.6448,-2.6447,-2.6446,-2.6429,-2.6427,-2.6424,0,0,0,0,0,0,-2.6349,-2.637,-2.6378,-2.6377,-2.6386,-2.6402,-2.6399,-2.641,-2.6415,-2.6416,-2.6431,-2.6433,-2.6432,-2.6437,-2.6442,-2.6438,-2.6447,-2.6446,-2.6434,-2.6431,-2.6429,-2.6427,-2.6456,0,0,0,0,0,-2.6344,-2.6348,-2.6366,-2.6363,-2.6367,-2.6383,-2.6386,-2.6396,-2.6405,-2.6408,-2.6417,-2.6424,-2.6428,-2.643,-2.6434,-2.643,-2.6433,-2.6427,-2.6425,-2.6423,-2.6422,-2.6421,-2.6419,-2.6443,-2.6443,-2.6443,0,0,-2.6331,-2.6344,-2.6345,-2.6358,-2.6366,-2.637,-2.6386,-2.6388,-2.6391,-2.6408,-2.6409,-2.6416,-2.6425,-2.6424,-2.6423,-2.6428,-2.6416,-2.6422,-2.642,-2.642,-2.642,-2.6418,-2.6416,-2.6442,-2.6442,-2.6442,0,0,-2.6312,-2.6322,-2.6321,-2.633,-2.6343,-2.6354,-2.6354,-2.6369,-2.6375,-2.6377,-2.6391,-2.6394,-2.64,-2.6406,-2.641,-2.6397,-2.6405,-2.6397,-2.6385,-2.6385,-2.6383,-2.6381,-2.6377,-2.6375,-2.6396,-2.6396,-2.6396,0,-2.6295,-2.6302,-2.6319,-2.6322,-2.6328,-2.6346,-2.6346,-2.6353,-2.6365,-2.6368,-2.6375,-2.6384,-2.6392,-2.6392,-2.6389,-2.6392,-2.6392,-2.6395,-2.6382,-2.6381,-2.6379,-2.6375,-2.6373,-2.6395,-2.6395,-2.6396,-2.6396,0,-2.6281,-2.6286,-2.6284,-2.6299,-2.6305,-2.6305,-2.6322,-2.6325,-2.6335,-2.6345,-2.6348,-2.6358,-2.6365,-2.6366,-2.6375,-2.6369,-2.6372,-2.638,-2.6389,-2.6376,-2.6372,-2.6371,-2.6394,-2.6394,-2.6395,-2.6395,0,0,-2.6243,-2.6271,-2.6269,-2.6277,-2.6295,-2.6298,-2.6301,-2.631,-2.6313,-2.6322,-2.6324,-2.633,-2.6339,-2.6343,-2.6353,-2.6352,-2.6342,-2.6361,-2.6361,-2.6357,-2.6337,-2.633,-2.6328,-2.6349,-2.6348,-2.6348,-2.6336,0,-2.6227,-2.6234,-2.625,-2.6251,-2.6257,-2.6276,-2.6278,-2.6288,-2.6298,-2.6304,-2.6314,-2.6319,-2.6329,-2.6333,-2.6333,-2.6343,-2.6338,-2.6344,-2.635,-2.635,-2.6346,-2.6326,-2.6319,-2.6306,-2.6334,-2.6334,-2.6334,0,-2.6207,-2.6218,-2.622,-2.624,-2.6243,-2.6244,-2.6256,-2.6261,-2.6273,-2.628,-2.6287,-2.6299,-2.6302,-2.6312,-2.6317,-2.6321,-2.6324,-2.633,-2.633,-2.633,-2.634,-2.6325,-2.6303,-2.6301,-2.6332,-2.6332,-2.6332,0,-2.618,-2.6195,-2.6199,-2.6205,-2.6227,-2.6228,-2.6237,-2.6251,-2.6256,-2.6266,-2.6269,-2.6278,-2.6283,-2.6289,-2.6303,-2.6309,-2.6306,-2.6317,-2.6311,-2.6311,-2.6309,-2.6309,-2.6286,-2.6312,-2.6312,-2.6312,-2.6312,0,-2.6159,-2.6159,-2.6187,-2.6189,-2.6191,-2.6211,-2.6212,-2.6222,-2.6234,-2.6239,-2.6255,-2.6258,-2.6277,-2.6282,-2.6293,-2.6296,-2.6297,-2.6303,-2.6306,-2.6301,-2.63,-2.6303,-2.6304,-2.6311,-2.6312,-2.6312,-2.6312,0,-2.6128,-2.6146,-2.6152,-2.6174,-2.618,-2.618,-2.6199,-2.6201,-2.6214,-2.6219,-2.6222,-2.624,-2.6248,-2.6263,-2.6273,-2.6281,-2.6281,-2.6286,-2.6277,-2.6279,-2.6273,-2.6273,-2.625,-2.6249,-2.6276,-2.6275,-2.6275,0,-2.6113,-2.6114,-2.6138,-2.6143,-2.6152,-2.616,-2.6167,-2.6187,-2.6192,-2.6209,-2.6209,-2.6219,-2.6227,-2.6238,-2.6252,-2.6261,-2.6266,-2.6258,-2.6267,-2.6263,-2.6266,-2.6265,-2.6266,-2.6255,-2.6254,-2.6254,-2.6254,0,-2.6084,-2.6094,-2.6104,-2.6118,-2.6126,-2.6137,-2.6149,-2.6152,-2.6174,-2.618,-2.619,-2.6196,-2.6209,-2.6218,-2.623,-2.6238,-2.6249,-2.6251,-2.6251,-2.6246,-2.6241,-2.6243,-2.6271,-2.6251,-2.6251,-2.6252,-2.6252,-2.6252,-2.606,-2.6064,-2.6082,-2.6092,-2.6104,-2.6116,-2.612,-2.6135,-2.6144,-2.6157,-2.6168,-2.6177,-2.6191,-2.6208,-2.6216,-2.6222,-2.6227,-2.6226,-2.6226,-2.6225,-2.6223,-2.6241,-2.6224,-2.6224,-2.6224,-2.6224,-2.6224,0,-2.6033,-2.6046,-2.6057,-2.6074,-2.6083,-2.6097,-2.6111,-2.6117,-2.6125,-2.6138,-2.6148,-2.6159,-2.6168,-2.6184,-2.6195,-2.6197,-2.6203,-2.6199,-2.6199,-2.6201,-2.6218,-2.6217,-2.6195,-2.6195,-2.6195,-2.6195,-2.6195,-2.6195,-2.602,-2.6026,-2.6039,-2.6051,-2.6064,-2.6075,-2.6082,-2.6093,-2.6104,-2.6117,-2.6126,-2.6137,-2.6151,-2.6164,-2.6173,-2.6178,-2.6181,-2.6175,-2.6181,-2.6197,-2.6199,-2.6202,-2.6202,-2.6176,-2.6176,-2.6164,-2.6164,-2.6164]}]]